FW2350 Weather Reports


Display with metric or nautical units.
time (UTC)temp
F
wind
direction
speed
MPH
gust
MPH
rain 1hr
in
rain 24hr
in
rain mn
in
humidity
%
barometer
mb
20260505233334 49 40 6.0 11.0 0.00 0.00 0.00 82 1013.4
20260505230344 50 57 7.0 12.0 0.00 0.00 0.00 82 1013.5
20260505223336 51 59 6.0 11.0 0.00 0.00 0.00 81 1013.4
20260505220329 51 19 4.0 11.0 0.00 0.00 0.00 82 1013.2
20260505213325 52 16 8.0 12.0 0.00 0.00 0.00 80 1013.1
20260505210337 52 36 7.0 12.0 0.00 0.00 0.00 73 1013.0
20260505203330 53 355 5.0 9.0 0.00 0.00 0.00 72 1012.9
20260505200325 53 13 4.0 8.0 0.00 0.00 0.00 71 1012.7
20260505193319 54 344 5.0 11.0 0.00 0.00 0.00 69 1012.5
20260505190313 55 9 5.0 10.0 0.00 0.00 0.00 69 1012.3
20260505183324 55 5 6.0 12.0 0.00 0.00 0.00 67 1012.1
20260505180339 56 14 6.0 11.0 0.00 0.00 0.00 64 1012.2
20260505173332 57 44 6.0 9.0 0.00 0.00 0.00 63 1012.2
20260505170327 57 19 6.0 12.0 0.00 0.00 0.00 63 1012.3
20260505163322 58 58 5.0 11.0 0.00 0.00 0.00 63 1012.3
20260505160337 59 58 6.0 10.0 0.00 0.00 0.00 61 1012.2
20260505153330 60 30 6.0 12.0 0.00 0.00 0.00 59 1012.4
20260505150340 59 20 8.0 12.0 0.00 0.00 0.00 60 1012.5
20260505140327 59 29 6.0 10.0 0.00 0.00 0.00 60 1012.6
20260505123330 61 42 5.0 11.0 0.00 0.04 0.00 60 1012.8
20260505120325 60 19 8.0 15.0 0.00 0.04 0.00 60 1012.7
20260505113318 60 30 7.0 16.0 0.00 0.04 0.00 61 1012.9
20260505110313 59 33 7.0 14.0 0.00 0.04 0.00 64 1013.0
20260505100318 56 10 7.0 12.0 0.00 0.04 0.00 69 1013.5
20260505093333 55 351 7.0 13.0 0.00 0.04 0.00 69 1013.5
20260505090327 52 46 7.0 13.0 0.00 0.04 0.00 77 1013.7
20260505083342 52 31 8.0 12.0 0.00 0.04 0.00 79 1013.7
20260505080335 51 13 4.0 10.0 0.00 0.04 0.00 81 1013.9
20260505073329 49 16 6.0 11.0 0.00 0.04 0.00 87 1013.8
20260505070343 47 15 5.0 11.0 0.00 0.04 0.00 93 1013.9
20260505063317 46 21 1.0 4.0 0.00 0.04 0.00 95 1013.9
20260505060327 45 355 1.0 4.0 0.00 0.04 0.00 95 1014.1
20260505053321 43 41 0.0 4.0 0.00 0.04 0.00 95 1014.0
20260505050335 39 29 2.0 4.0 0.00 0.04 0.00 95 1014.1
20260505040322 38 50 0.0 0.0 0.00 0.04 0.00 93 1014.0
20260505033315 39 50 0.0 0.0 0.00 0.04 0.00 94 1013.8
20260505030330 39 50 1.0 1.0 0.00 0.04 0.00 94 1013.9
20260505023324 41 50 0.0 0.0 0.00 0.04 0.00 94 1014.0
20260505020318 40 50 0.0 1.0 0.00 0.04 0.00 94 1014.3
20260505013350 42 50 1.0 2.0 0.00 0.04 0.00 93 1014.4
20260505010324 43 50 0.0 1.0 0.00 0.04 0.00 93 1014.4
20260505003317 41 51 0.0 0.0 0.00 0.04 0.00 92 1014.5
20260505000332 42 51 0.0 0.0 0.00 0.04 0.00 91 1014.7